{"data":{"norad_id":49737,"epoch":"2026-09-19T19:02:19.858560Z","epoch_age_seconds":106036,"freshness":"FRESH","line1":"1 49737U 21115P   26262.79328540  .00005324  00000+0  19597-3 0  9993","line2":"2 49737  53.1624 352.6188 0001171  74.6361 285.4769 15.29479833264906","mean_motion":15.29479833,"eccentricity":0.0001171,"inclination_deg":53.1624,"raan_deg":352.6188,"arg_perigee_deg":74.6361,"mean_anomaly_deg":285.4769,"bstar":0.00019597,"rev_number":26490,"period_min":94.149655911154,"perigee_km":476.56342253424,"apogee_km":478.16898138414,"semimajor_km":6855.5032019592,"source":"CELESTRAK","updated_at":"2026-09-20T09:00:39.405399Z"}}